TimeCDT,TemperatureF,Dew PointF,Humidity,Sea Level PressureIn,VisibilityMPH,Wind Direction,Wind SpeedMPH,Gust SpeedMPH,PrecipitationIn,Events,Conditions,WindDirDegrees,DateUTC
12:15 AM,35.6,30.2,81,30.06,10.0,SE,10.4,-,N/A,,Overcast,140,2012-10-31 05:15:00
12:35 AM,35.6,32.0,87,30.06,10.0,SE,9.2,-,N/A,,Overcast,140,2012-10-31 05:35:00
12:55 AM,37.4,32.0,81,30.06,10.0,SE,10.4,-,N/A,,Overcast,140,2012-10-31 05:55:00
1:15 AM,37.4,32.0,81,30.06,10.0,SE,9.2,-,N/A,,Overcast,140,2012-10-31 06:15:00
1:35 AM,37.4,32.0,81,30.06,10.0,SE,9.2,-,N/A,,Overcast,140,2012-10-31 06:35:00
1:55 AM,37.4,32.0,81,30.05,10.0,SE,10.4,-,N/A,,Overcast,140,2012-10-31 06:55:00
2:15 AM,37.4,32.0,81,30.05,10.0,SSE,10.4,-,N/A,Rain,Light Rain,150,2012-10-31 07:15:00
2:35 AM,37.4,32.0,81,30.05,10.0,SSE,9.2,-,N/A,,Overcast,150,2012-10-31 07:35:00
2:55 AM,37.4,32.0,81,30.05,10.0,SSE,10.4,-,N/A,,Mostly Cloudy,150,2012-10-31 07:55:00
3:15 AM,37.4,32.0,81,30.04,10.0,SSE,10.4,-,N/A,,Mostly Cloudy,150,2012-10-31 08:15:00
3:35 AM,37.4,32.0,81,30.03,10.0,SSE,10.4,-,N/A,,Overcast,160,2012-10-31 08:35:00
3:55 AM,37.4,32.0,81,30.03,10.0,SSE,9.2,-,N/A,,Mostly Cloudy,150,2012-10-31 08:55:00
4:15 AM,37.4,32.0,81,30.03,10.0,SSE,8.1,-,N/A,,Partly Cloudy,150,2012-10-31 09:15:00
4:35 AM,37.4,32.0,81,30.03,10.0,SSE,6.9,-,N/A,,Mostly Cloudy,150,2012-10-31 09:35:00
4:55 AM,35.6,32.0,87,30.03,10.0,SE,5.8,-,N/A,,Scattered Clouds,140,2012-10-31 09:55:00
5:15 AM,37.4,32.0,81,30.02,10.0,SE,6.9,-,N/A,,Mostly Cloudy,130,2012-10-31 10:15:00
5:35 AM,37.4,32.0,81,30.01,10.0,SE,8.1,-,N/A,,Overcast,140,2012-10-31 10:35:00
5:55 AM,37.4,32.0,81,30.00,10.0,SSE,10.4,-,N/A,,Overcast,150,2012-10-31 10:55:00
6:15 AM,37.4,32.0,81,30.00,10.0,SSE,9.2,-,N/A,,Mostly Cloudy,150,2012-10-31 11:15:00
6:35 AM,37.4,32.0,81,29.99,10.0,SSE,9.2,-,N/A,,Partly Cloudy,160,2012-10-31 11:35:00
6:55 AM,35.6,32.0,87,30.00,10.0,South,8.1,-,N/A,,Clear,170,2012-10-31 11:55:00
7:15 AM,35.6,32.0,87,30.00,10.0,South,8.1,-,N/A,,Clear,170,2012-10-31 12:15:00
7:35 AM,35.6,32.0,87,29.99,10.0,SSE,8.1,-,N/A,,Clear,150,2012-10-31 12:35:00
7:55 AM,35.6,32.0,87,29.99,10.0,SSE,10.4,-,N/A,,Clear,160,2012-10-31 12:55:00
8:15 AM,37.4,32.0,81,29.98,10.0,SSE,10.4,-,N/A,,Clear,160,2012-10-31 13:15:00
8:35 AM,37.4,32.0,81,29.99,10.0,South,11.5,-,N/A,,Clear,180,2012-10-31 13:35:00
8:55 AM,39.2,32.0,75,29.99,10.0,South,12.7,-,N/A,,Clear,170,2012-10-31 13:55:00
9:15 AM,39.2,32.0,75,30.00,10.0,SSW,10.4,-,N/A,,Clear,200,2012-10-31 14:15:00
9:35 AM,39.2,32.0,75,29.99,10.0,SSW,10.4,-,N/A,,Clear,200,2012-10-31 14:35:00
9:55 AM,39.2,32.0,75,29.99,10.0,South,8.1,-,N/A,,Scattered Clouds,180,2012-10-31 14:55:00
10:15 AM,41.0,32.0,70,29.98,10.0,SSW,9.2,-,N/A,,Mostly Cloudy,210,2012-10-31 15:15:00
10:35 AM,41.0,32.0,70,29.98,10.0,SSW,6.9,-,N/A,,Mostly Cloudy,210,2012-10-31 15:35:00
10:55 AM,41.0,32.0,70,29.99,10.0,WSW,5.8,-,N/A,,Partly Cloudy,250,2012-10-31 15:55:00
11:15 AM,41.0,32.0,70,29.98,10.0,SW,3.5,-,N/A,,Clear,220,2012-10-31 16:15:00
11:35 AM,41.0,32.0,70,29.96,10.0,SSE,3.5,-,N/A,,Partly Cloudy,150,2012-10-31 16:35:00
11:55 AM,42.8,33.8,70,29.97,10.0,South,4.6,-,N/A,,Scattered Clouds,170,2012-10-31 16:55:00
12:15 PM,42.8,33.8,70,29.95,10.0,SSE,3.5,-,N/A,,Scattered Clouds,160,2012-10-31 17:15:00
12:35 PM,44.6,33.8,66,29.96,10.0,WSW,4.6,-,N/A,,Mostly Cloudy,240,2012-10-31 17:35:00
12:55 PM,44.6,35.6,71,29.96,10.0,West,4.6,-,N/A,,Overcast,270,2012-10-31 17:55:00
2:55 PM,44.6,37.4,76,29.96,6.0,NW,8.1,-,N/A,,Haze,320,2012-10-31 19:55:00
3:15 PM,46.4,37.4,71,29.97,9.0,NNW,11.5,-,N/A,,Mostly Cloudy,330,2012-10-31 20:15:00
3:35 PM,44.6,37.4,76,29.96,9.0,North,17.3,20.7,N/A,,Mostly Cloudy,350,2012-10-31 20:35:00
3:55 PM,46.4,37.4,71,29.97,9.0,North,13.8,20.7,N/A,,Mostly Cloudy,350,2012-10-31 20:55:00
4:15 PM,44.6,37.4,76,29.98,10.0,North,19.6,-,N/A,,Overcast,350,2012-10-31 21:15:00
4:35 PM,44.6,37.4,76,29.99,8.0,NNW,21.9,27.6,N/A,,Overcast,340,2012-10-31 21:35:00
4:55 PM,41.0,37.4,87,30.00,6.0,NNW,19.6,25.3,N/A,,Overcast,340,2012-10-31 21:55:00
5:15 PM,41.0,39.2,93,30.01,5.0,North,19.6,29.9,N/A,,Overcast,350,2012-10-31 22:15:00
5:35 PM,41.0,37.4,87,30.01,6.0,North,19.6,28.8,N/A,,Overcast,350,2012-10-31 22:35:00
5:55 PM,39.2,37.4,93,30.02,5.0,North,18.4,26.5,N/A,,Overcast,350,2012-10-31 22:55:00
6:15 PM,39.2,37.4,93,30.03,5.0,North,17.3,25.3,N/A,,Overcast,350,2012-10-31 23:15:00
6:35 PM,39.2,37.4,93,30.04,5.0,North,18.4,26.5,N/A,,Overcast,350,2012-10-31 23:35:00
6:55 PM,39.2,37.4,93,30.04,10.0,NNW,16.1,-,N/A,,Overcast,340,2012-10-31 23:55:00
7:15 PM,39.2,35.6,87,30.05,10.0,NNW,23.0,26.5,N/A,,Overcast,340,2012-11-01 00:15:00
7:35 PM,37.4,33.8,87,30.05,10.0,North,20.7,27.6,N/A,,Mostly Cloudy,350,2012-11-01 00:35:00
7:55 PM,37.4,33.8,87,30.06,10.0,NNW,23.0,29.9,N/A,,Overcast,340,2012-11-01 00:55:00
8:15 PM,37.4,33.8,87,30.07,10.0,North,18.4,28.8,N/A,,Overcast,350,2012-11-01 01:15:00
8:35 PM,37.4,32.0,81,30.08,10.0,NNW,18.4,25.3,N/A,,Overcast,340,2012-11-01 01:35:00
8:55 PM,37.4,32.0,81,30.08,10.0,North,15.0,26.5,N/A,,Overcast,350,2012-11-01 01:55:00
9:15 PM,37.4,32.0,81,30.08,10.0,North,20.7,27.6,N/A,,Overcast,350,2012-11-01 02:15:00
9:35 PM,35.6,32.0,87,30.09,10.0,NNW,19.6,27.6,N/A,,Overcast,340,2012-11-01 02:35:00
9:55 PM,35.6,32.0,87,30.09,10.0,NNW,23.0,27.6,N/A,Rain,Light Rain,340,2012-11-01 02:55:00
10:15 PM,35.6,30.2,81,30.09,10.0,North,23.0,28.8,N/A,,Overcast,350,2012-11-01 03:15:00
10:35 PM,35.6,30.2,81,30.10,10.0,North,18.4,25.3,N/A,,Overcast,350,2012-11-01 03:35:00
10:55 PM,35.6,28.4,75,30.10,10.0,North,20.7,29.9,N/A,,Overcast,350,2012-11-01 03:55:00
11:15 PM,33.8,28.4,81,30.11,10.0,North,17.3,24.2,N/A,,Overcast,350,2012-11-01 04:15:00
11:35 PM,33.8,28.4,81,30.11,10.0,NNW,20.7,25.3,N/A,,Overcast,340,2012-11-01 04:35:00
11:55 PM,32.0,26.6,80,30.11,10.0,North,20.7,28.8,N/A,,Overcast,350,2012-11-01 04:55:00